Flag for Netherlands Weather past 2 weeks in Amsterdam, Netherlands

Now
55 °F

Fog.


Feels Like: 52 °F
Forecast: 51 / 60 °F
Wind: 12 mph from Southwest

Location: Amsterdam Schiphol Airport

Current Time: Oct 25, 2014 at 2:57:43 AM

Latest Report: Oct 25, 2014 at 2:25 AM


Visibility: 3 mi

Pressure: 29.95 "Hg

Humidity: 94%

Dew point: 54 °F

Location of AmsterdamLocation

Historic Weather in Amsterdam — Graph

°F

Amsterdam temperature yesterday

Maximum temperature yesterday: 55 °F (at 12:25 AM)
Minimum temperature yesterday: 52 °F (at 4:55 AM)
Average temperature yesterday: 53 °F

Past Weeks' High & Low Weather Summary

 TemperatureHumidityPressure
High72 °F (Oct 18, 3:55 PM)100% (Oct 11, 2:55 AM)30.15 "Hg (Oct 11, 2:55 AM)
Low46 °F (Oct 22, 4:55 AM)6% (Oct 21, 5:25 PM)29.42 "Hg (Oct 21, 1:25 PM)
Average57 °F88%29.85 "Hg
* Reported Oct 10 1:25 AM — Oct 25 1:55 AM, Amsterdam, Weather by CustomWeather, © 2014

Note: Actual official high and low records may vary slightly from our data, if they occured in-between our weather recording intervals... More about our weather records

Advertising

Amsterdam weather history for previous 24 hours

 ConditionsComfort  
Time TempWeatherWind HumidityBarometerVisibility
1:55 AM
Oct 25
54 °FLow clouds.14 mph100%29.95 "Hg4 mi
1:25 AM54 °FLow clouds.13 mph100%29.95 "Hg4 mi
12:55 AM54 °FLow clouds.13 mph100%29.95 "HgN/A
12:25 AM54 °FLight rain. Passing clouds.13 mph100%29.95 "HgN/A
11:55 PM
Oct 24
54 °FLight rain. Passing clouds.14 mph100%29.98 "Hg3 mi
11:25 PM54 °FLight rain. Passing clouds.13 mph100%29.98 "HgN/A
10:55 PM54 °FSprinkles. Passing clouds.14 mph100%29.98 "HgN/A
10:25 PM54 °FSprinkles. Passing clouds.15 mph100%29.95 "Hg5 mi
9:55 PM54 °FDrizzle. Mostly cloudy.15 mph100%29.98 "Hg4 mi
9:25 PM54 °FDrizzle. Mostly cloudy.15 mph100%29.98 "Hg1 mi
8:55 PM54 °FMostly cloudy.14 mph100%29.98 "Hg4 mi
8:25 PM54 °FDrizzle. Mostly cloudy.13 mph100%29.98 "HgN/A
7:55 PM54 °FMostly cloudy.15 mph100%29.98 "HgN/A
7:25 PM54 °FMostly cloudy.12 mph100%29.98 "Hg4 mi
6:55 PM54 °FDrizzle. Mostly cloudy.14 mph100%29.98 "Hg2 mi
6:25 PM54 °FDrizzle. Mostly cloudy.12 mph100%29.98 "Hg2 mi
5:55 PM54 °FDrizzle. Low clouds.13 mph100%29.98 "Hg2 mi
5:25 PM54 °FLow clouds.12 mph100%29.98 "Hg6 mi
4:55 PM55 °FLow clouds.12 mph94%29.98 "HgN/A
4:25 PM54 °FMostly cloudy.13 mph100%30.01 "HgN/A
3:55 PM54 °FMostly cloudy.13 mph100%30.01 "Hg5 mi
3:25 PM54 °FDrizzle. Mostly cloudy.12 mph100%30.01 "Hg4 mi
2:55 PM54 °FDrizzle. Broken clouds.14 mph100%30.01 "Hg2 mi
2:25 PM54 °FDrizzle. Broken clouds.12 mph100%30.01 "Hg2 mi
1:55 PM54 °FDrizzle. Broken clouds.13 mph100%30.04 "Hg2 mi
1:25 PM54 °FDrizzle. Broken clouds.13 mph100%30.04 "Hg4 mi
12:55 PM54 °FDrizzle. Broken clouds.12 mph94%30.04 "Hg3 mi
12:25 PM52 °FDrizzle. Broken clouds.13 mph100%30.04 "Hg3 mi
11:55 AM52 °FDrizzle. Partly sunny.15 mph100%30.04 "Hg2 mi
11:25 AM52 °FDrizzle. Mostly cloudy.15 mph100%30.04 "Hg3 mi
10:55 AM52 °FDrizzle. Mostly cloudy.15 mph94%30.07 "HgN/A
10:25 AM52 °FDrizzle. Mostly cloudy.15 mph94%30.07 "HgN/A
9:55 AM52 °FDrizzle. Mostly cloudy.14 mph94%30.07 "HgN/A
9:25 AM52 °FPartly sunny.13 mph88%30.07 "HgN/A
8:55 AM52 °FPartly cloudy.14 mph88%30.04 "HgN/A
8:25 AM52 °FPassing clouds.13 mph88%30.04 "HgN/A
7:55 AM52 °FOvercast.13 mph88%30.04 "HgN/A
7:25 AM52 °FPartly cloudy.13 mph88%30.04 "Hg4 mi
6:55 AM54 °FDrizzle. Mostly cloudy.14 mph82%30.07 "HgN/A
6:25 AM52 °FDrizzle. Mostly cloudy.16 mph88%30.07 "HgN/A
5:55 AM54 °FPassing clouds.16 mph82%30.07 "HgN/A
5:25 AM54 °FPassing clouds.15 mph77%30.07 "HgN/A
4:55 AM52 °FPassing clouds.14 mph88%30.07 "HgN/A
4:25 AM54 °FPassing clouds.15 mph82%30.07 "HgN/A
3:55 AM54 °FPassing clouds.15 mph82%30.07 "HgN/A
3:25 AM54 °FPassing clouds.14 mph82%30.09 "HgN/A
2:55 AM54 °FPassing clouds.14 mph82%30.09 "HgN/A
2:25 AM54 °FPassing clouds.15 mph88%30.09 "HgN/A
Weather by CustomWeather, © 2014

See weather overviewHow to use our weather pages